THORAD AGENA D DEB, 42514

Orbit data source: Space-Track

THORAD AGENA D DEB, 42514 is space debris in SSO originally from a launch on Wed, 08 Apr 1970 UTC launched from the Air Force Western Test Range (AFWTR). Debris objects in space refer to the collection of defunct objects orbiting the Earth. Examples of debris include non-operational satellites, rocket bodies, and fragments generated from explosions, collisions, or faulty payload assembly.

Loading next visibility...
Identifier
42514, 1970-025RU
Orbit
SSO
Last TLE update
4 days ago
Origin
Manufacturer
Unknown
Mission
Spacecraft
Bus & Motor
Unknown
Mass
Unknown
Launch date (UTC)
1970-04-08 (55 years ago)
Launch vehicle
Unknown
Launch site
Air Force Western Test Range (AFWTR)
Object type
Payload
Rocket body
Debris
Shape & HBR
Unknown
Radar Cross Section
Small (<0.1 m²)

Expand to show TLE details & history

TLE from 4 days ago
0 THORAD AGENA D DEB
1 42514U 70025RU  25124.87716743  .00000535  00000-0  12451-2 0  9995
2 42514  99.3492 284.0779 0185174 208.9389 150.1363 13.23023555 25090
Epoch: 2025-05-04T21:03Z
Definitive object data (Epoch: 2025-05-04T21:03:07.265Z)
Latitude
-0.00011°
Longitude
105.29887°
Altitude
1,297.865 km
Speed
7.149 km/s
True Right ascension
18h 56m 18s
True Declination
0° 00' 00"
Sunlit
Object was in daylight at TLE epoch
Visualization TLE readout
Latitude
79.7972°
Longitude
-5.22814°
Altitude
1,218.231 km
Speed
7.237 km/s
Apparent Right ascension
03h 55m 21s
Apparent Declination
38° 59' 52"
Sunlit
Object is in daylight
Visualization observer readout
Local Sidereal Time
14:57:24
Azimuth
348.613° N
Elevation
-9.981°
Doppler factor
1
Orbital elements
Apogee altitude
1,310.293 km
Perigee altitude
1,030.73 km
Semi-major axis
7,548.649 km
Eccentricity
0.0185174
Inclination
99.3492°
RAAN
284.0779°
Arg. of periapsis
208.9389°
True anomaly
151.17203°
Mean anomaly
150.1363°
Eccentric anomaly
150.65623°
Mean motion
3.30932 °/min
BSTAR
0.0012451
Orbital period
108.78 mins
Loading maneuver chart data...
Loading SW <> Apogee altitude chart data...

THORAD AGENA D DEB Visibility forecast

Observer location: undefined°, undefined°

Span
Click to sort rows by Start time (UTC) header in descending order
Start Az.
Max El. time (UTC)
Max El. Az.
Max El.
End time (UTC)
End Az.
5 mins2025-05-09 08:21:30.320Z74.23° E2025-05-09 08:24:30.320Z49.667° ENE13.332°2025-05-09 08:26:30.320Z33.208° NE
14 mins2025-05-09 10:03:30.320Z149.963° SSE2025-05-09 10:10:30.320Z51.705° ENE42.422°2025-05-09 10:17:30.320Z351.256° N
10 mins2025-05-09 11:53:30.320Z226.621° WSW2025-05-09 11:57:30.320Z264.717° W22.457°2025-05-09 12:03:30.320Z318.331° NNW
12 mins2025-05-09 23:16:30.320Z18.788° NNE2025-05-09 23:22:30.320Z118.055° SE43.88°2025-05-09 23:28:30.320Z188.348° SSW
7 mins2025-05-10 01:05:30.320Z336.277° NNW2025-05-10 01:08:30.320Z306.225° NW18.64°2025-05-10 01:12:30.320Z264.916° W
|